map of CNO home
CNO - Airport
Location
City:  Chino, California, United States
ICAO:KCNO
IATA:CNO
FAA LID:CNO

Details
Type:Airport (Airfield)
Use:Public/Civil
Latitude:33°58'29"N (33.974779)
Longitude:117°38'11"W (-117.636482)
Datum:WGS 1984
Elevation:650 ft (198 m)
Variation:11.76°E (WMM2015v2 magnetic declination)
-0.08° annual change
Runways:3
Longest:7000 × 150 ft (2134 × 45.5 m), paved

Time
Time Zone:UTC-8 (DST-7)
Local Time:

Weather
METAR:KCNO 041417Z AUTO 16003KT 3SM -RA BR SCT021 BKN026 OVC044 11/10 A2986 RMK AO2 P0002 T01060100

Related Locations
Nearby:
Farthest:ZSE: 11464 mi / 18450 km
St-Pierre (St-Pierre de la Réunion) [Pierrefonds], RE

Find:

   beyond  
but within

Other Information
Maps:
NOTAMs:
Links:
Sources:

  
  • flag of United States
  • flag of California
  

Airport Diagram

Airport diagram for CNO

Airport diagram PDF from FAA

Sectional Chart

Flight Planning
at skyvector.com

Satellite Image

Google Maps Satellite view

 

Copyright © 2004-2019 Karl L. Swartz. All rights reserved.
The Great Circle Mapper name and logo are trademarks of the Great Circle Mapper.
All other trademarks mentioned herein belong to their respective owners.
Please see credits for attibutions and further copyright information.

  Follow gcmap on Facebook Follow gcmap on Twitter GCmap on LinkedIn

hCard Microformat

Geo Microformat